CZ-6A DEB

Satellite information

Favourite Embed

Satellite Type and Status

DEBRISIN ORBIT

Key statistics

Satellite CZ-6A DEB at a glance.

Uptime

494

Days in orbit

Revolutions

≈ 14.2

Per day

Orbit

LEO

Low Earth Orbit

Inclination

89.0

Latest

Satellite identification and parameters

Extended collection of information and parameters for CZ-6A DEB.

Object identification

Identified? True

Debris? True

Object name: CZ-6A DEB

International designator: 2024-140TJ

Object number (NORAD): 61297

Object ID (CCSDS): 61297

Country: PEOPLES REPUBLIC OF CHINA (PRC)

Current information (Y/N): Y

RCS size: SMALL

Orbital parameters

Period: 101.378 minutes

Inclination: 89.0468 deg

SMA: 7202.041 km

Apoapsis: 869.24 km

Periapsis: 778.572 km

RAAN: 298.6586 deg

Eccentricy: 0.0062946

Argument of periapsis: 70.2208 deg

Mean anomaly: 290.5755 deg

Mean motion: 14.20428602 rev/day

Mean motion (dot): 0.00006378 rev/day2

B* drag term: 0.0029099 1/REarth

Two-line elements (TLE)

Creation date: Dec. 12, 2025, 7:26 a.m.

Reference frame: TEME

Reference center: EARTH

Epoch: Dec. 11, 2025, 9:46 p.m. UTC

TLE line 0: 0 CZ-6A DEB

TLE line 1: 1 61297U 24140TJ 25345.90724094 .00006378 00000-0 29099-2 0 9995

TLE line 2: 2 61297 89.0468 298.6586 0062946 70.2208 290.5755 14.20428602 66714

Live tracking on map

Real-time ground track for satellite CZ-6A DEB.

In-orbit conjunctions

A list of the most updated potential collisions computed for object CZ-6A DEB.

Target Orbit TCA Probability of collision Miss distance Type
FENGYUN 1C DEB SSO 2025-11-08 09:15:10 0.0002624941 114.0 (m) DEBRIS
FENGYUN 1C DEB SSO 2025-10-29 16:06:58 0.0002123818 121.0 (m) DEBRIS
DIAMANT B-P4 DEB LEO 2025-08-04 07:21:05 0.0001567424 45.0 (m) DEBRIS
DELTA 1 DEB SSO 2025-03-03 16:55:43 0.000541579 492.0 (m) DEBRIS
COSMOS 397 DEB * LEO 2025-02-03 09:50:57 0.0001336086 365.0 (m) DEBRIS

Associated space launch

18 Low Earth Orbit communication satellites with Ku, Q and V band payloads for the G60 constellation operated by Shanghai Spacecom Satellite Technology (SSST) with funding backed by the Shanghai local government. Initial constellation will consist of 1296 satellites by 2027 with long term plans to expand it to 12000 satellites.

CZ-6A DEB was lifted into orbit during the mission ‘Long March 6A | G60 Polar Group 01’, on board a Long March 6A space rocket.

The launch took place on Aug. 6, 2024, 6:42 a.m. from Launch Complex 9A.

For more information about the launch, click the button.

Launch to space Long March 6A | G60 Polar Group 01
Long March 6A | G60 Polar Group 01

Agency: N/A

Status: Launch Successful

Launch date: Aug. 6, 2024, 6:42 a.m. UTC

Rocket: Long March 6A

Launch pad: Launch Complex 9A

Location: Taiyuan Satellite Launch Center, People's Republic of China

...

Latest news about this satellite

News about space launch
Brightness of first Chinese broadband constellation satellites alarms astronomers

The first satellites of a Chinese broadband constellation are significantly brighter than those of Western systems, posing a new challenge for astronomers.

News about space launch
Chinese rocket stage breaks up into cloud of more than 700 pieces of space debris

HELSINKI — A Chinese Long March 6A rocket’s upper stage has fragmented into a cloud of over 700 pieces of space debris, adding to concerns about long-term orbital safety. China […]

News about space launch
China's Thousand Sails Megaconstellation Kicks Off with Dangerous Debris Field

China's Thousand Sails Megaconstellation Kicks Off with Dangerous Debris Field


Newsletter sign-up

Weekly statistics, charts and insights to help you stay on top of the space industry.